Regional Weather Roundup
Issued by NWS

Home | Current Version | Previous Version | Text Only | Print | Product List | Glossary Off
Versions: 1 2 3 4 5 6 7 8 9 10 11 12 13 14 15 16 17 18 19 20 21 22 23 24 25 26 27 28 29 30 31 32 33 34 35 36 37 38 39 40 41 42 43 44 45 46 47 48 49 50

158
ASUS43 KLOT 301503
RWRIL

ILLINOIS REGIONAL WEATHER ROUNDUP
NATIONAL WEATHER SERVICE CHICAGO/ROMEOVILLE IL
1000 AM CDT THU MAR 30 2017

NOTE: "FAIR" INDICATES FEW OR NO CLOUDS BELOW 12,000 FEET WITH NO
SIGNIFICANT WEATHER AND/OR OBSTRUCTIONS TO VISIBILITY.

* THESE STATIONS ARE NOT UNDER NWS QUALITY CONTROL. THEY ALSO MAY NOT
  REPORT WEATHER SUCH AS PRECIPITATION OR FOG.

ILZ001-002-007-009-015-016-024-301600-
NORTHWEST ILLINOIS

CITY           SKY/WX    TMP DP  RH WIND       PRES   REMARKS
MOLINE         CLOUDY    45  42  89 E17       29.61F
STERLING*      LGT RAIN  43  41  93 E17       29.70S
SAVANNA*       DRIZZLE   42  40  95 NE17      29.70F
$$

ILZ003-004-008-010-011-017-018-301600-
NORTH CENTRAL ILLINOIS

CITY           SKY/WX    TMP DP  RH WIND       PRES   REMARKS
ROCKFORD       LGT RAIN  42  39  89 NE13G21   29.75F
FREEPORT*      LGT RAIN  39  38  97 E14       29.75F WCI  31
ROCHELLE*      CLOUDY    42  40  95 E15       29.71S
DE KALB*       CLOUDY    41  40  96 E21       29.71F
PERU*          CLOUDY    43  41  93 E12       29.67F
$$

ILZ005-006-012>014-019>023-301600-
NORTHEAST ILLINOIS

CITY           SKY/WX    TMP DP  RH WIND       PRES   REMARKS
CHICAGO-OHARE  LGT RAIN  43  39  86 E17       29.75F
CHICAGO-MIDWAY LGT RAIN  45  42  89 E9G18     29.74F
AURORA         CLOUDY    44  41  89 E17       29.71F FOG
LANSING*       CLOUDY    44  42  95 SE16G22   29.74F
JOLIET*        CLOUDY    46  44  93 E13       29.71F
WAUKEGAN       CLOUDY    40  40 100 E10       29.79S FOG
DUPAGE AIRPORT CLOUDY    43  42  97 E13       29.73F FOG
KANKAKEE*      CLOUDY    45  43  93 E16G22    29.70F THUNDER
WHEELING       CLOUDY    41  40  96 E10       29.78R
MORRIS*        CLOUDY    44  42  90 E14G21    29.68F
NORTHERLY ISL    N/A     40  38  93 E8          N/A
$$

LMZ740>746-301600-
SOUTHERN LAKE MICHIGAN

STATION/POSITION SKY/WX   TEMP    WIND        PRES    VSBY  WAVE
                          AIR SEA DIR/SP/G                  HT/PER
                          (F)     (DEG/KT/KT) (MB)    (MI)  (FT/S)
HARRISON CRIB              41     110/ 13/ 14   N/A
BURNHAM HARBOR             40      70/  8/ 12   N/A
CALUMET HARBOR             42      90/ 10/ 14 1007.3R
BURNS HARBOR               45     140/ 16/ 29 1008.5R
MICHIGAN CITY              44     100/ 15/ 17   N/A
$$

ILZ025>027-034>036-040-047-049-050-058-095>099-301600-
WEST-CENTRAL ILLINOIS

CITY           SKY/WX    TMP DP  RH WIND       PRES   REMARKS
QUINCY         FOG       52  52 100 E8        29.55F VSB 1/4
GALESBURG*     CLOUDY    46  46  98 E8G17     29.61R
MACOMB*        CLOUDY    49  49 100 E6        29.61S FOG
JACKSONVILLE*  TSTM      55  55  98 NE6       29.54F
PITTSFIELD*    DRZL/FOG  55  55 100 NW7       29.54F VSB 3/4
$$

ILZ028>032-037-038-041>044-048-051>054-059>061-301600-
CENTRAL ILLINOIS

CITY           SKY/WX    TMP DP  RH WIND       PRES   REMARKS
PONTIAC        CLOUDY    47  46  99 E21G26    29.66F
BLOOMINGTON    TSTM      50  49  96 E9        29.62F FOG
DECATUR        CLOUDY    56  54  93 SE13      29.58F
PEORIA         RAIN      47  47 100 E14       29.62R FOG
LACON*         CLOUDY    45  44  98 E14       29.63F
LINCOLN*       TSTM      54  54 100 NE12      29.59F
SPRINGFIELD    HVY RAIN  56  56 100 SW5       29.59S FOG
TAYLORVILLE    NOT AVBL
$$

ILZ033-039-045-046-055>057-062-063-301600-
EAST-CENTRAL ILLINOIS

CITY           SKY/WX    TMP DP  RH WIND       PRES   REMARKS
CHAMPAIGN      CLOUDY    54  52  93 E12       29.62F FOG
RANTOUL*       LGT RAIN  52  51  97 E10       29.65F
MATTOON        PTSUNNY   58  56  93 SE12      29.62F
PARIS*         CLOUDY    56  54  92 E7        29.67S
$$

ILZ079-100>102-301600-
SOUTHWEST ILLINOIS

CITY           SKY/WX    TMP DP  RH WIND       PRES   REMARKS
ALTON          PTSUNNY   61  57  88 S7        29.57F
CAHOKIA*       CLOUDY    65  61  87 CALM      29.56F
SPARTA*        LGT RAIN  64  58  83 S13       29.59S
$$

ILZ064>066-069>071-074>076-080>082-084>086-088>090-092>094-301600-
SOUTH-CENTRAL ILLINOIS

CITY           SKY/WX    TMP DP  RH WIND       PRES   REMARKS
CARBONDALE     LGT RAIN  63  60  90 SW22G36   29.60S
CAIRO*         CLOUDY    66  58  73 S13G23    29.64S
EFFINGHAM*     CLOUDY    62  59  92 E8        29.63S
MARION         PTSUNNY   70  61  73 S15G31    29.61F
MT. VERNON     CLOUDY    68  59  73 S20G26    29.60F
CENTRALIA*     CLOUDY    68  61  78 S16G23    29.59S
SALEM*         CLOUDY    67  58  75 S16       29.59F
METROPOLIS*    CLOUDY    69  55  61 S17G23    29.65S
$$

ILZ067-068-072-073-078-083-087-091-301600-
SOUTHEAST ILLINOIS

CITY           SKY/WX    TMP DP  RH WIND       PRES   REMARKS
LAWRENCEVILLE  CLOUDY    66  60  81 S14       29.65S
FLORA*         CLOUDY    67  60  79 S12       29.62F
FAIRFIELD*     CLOUDY    66  59  78 S5        29.61F
HARRISBURG*    PTSUNNY   69  58  68 S15       29.63F
ROBINSON*      CLOUDY    60  56  87 SE3       29.65S
CARMI*         CLOUDY    66  60  80 SE9       29.62F
$$

ABBREVIATIONS USED IN REMARKS
   TC - TEMPERATURE IN CELSIUS
  WCI - WIND CHILL INDEX
   HX - HEAT INDEX
  VSB - VISIBILITY
$$





USA.gov is the U.S. government's official web portal to all federal, state and local government web resources and services.